This is the latest recevied weather packets stored in our database for station/object WP3OF-1. If no packets are shown the sender has not sent any weather packets the latest 10 day(s).
| Time | Temp. | Humidity | Pressure | Rain* | Wind** | Luminosity | Snow |
|---|---|---|---|---|---|---|---|
| 1777691759 | 25° C | 86% | 1016.5 hPa | 0 mm | - | - | - |
| 1777691456 | 25° C | 86% | 1016.4 hPa | 0 mm | - | - | - |
| 1777691156 | 25° C | 87% | 1016.2 hPa | 0 mm | - | - | - |
| 1777690853 | 25° C | 87% | 1016.5 hPa | 0 mm | - | - | - |
| 1777690550 | 25° C | 87% | 1015.9 hPa | 0 mm | - | - | - |
| 1777690248 | 25° C | 87% | 1016.2 hPa | 0 mm | - | - | - |
| 1777689945 | 25° C | 87% | 1016.4 hPa | 0 mm | - | - | - |
| 1777689643 | 25° C | 86% | 1016.3 hPa | 0 mm | - | - | - |
| 1777689341 | 25° C | 86% | 1016.2 hPa | 0 mm | - | - | - |
| 1777689038 | 25° C | 86% | 1016.2 hPa | 0 mm | - | - | - |
| 1777688734 | 25° C | 85% | 1015.9 hPa | 0 mm | - | - | - |
| 1777688432 | 25.56° C | 84% | 1016.3 hPa | 0 mm | - | - | - |
| 1777687826 | 25° C | 84% | 1015.8 hPa | 0 mm | - | - | - |
| 1777687524 | 25° C | 83% | 1016.1 hPa | 0 mm | - | - | - |
| 1777674190 | 26.11° C | 84% | 1014.4 hPa | 0 mm | - | - | - |
| 1777673886 | 26.11° C | 83% | 1014.1 hPa | 0 mm | - | - | - |
| 1777672066 | 26.11° C | 80% | 1014.2 hPa | 0 mm | - | - | - |
| 1777671458 | 26.11° C | 80% | 1014 hPa | 0 mm | - | - | - |
| 1777671155 | 26.11° C | 81% | 1014 hPa | 0 mm | - | - | - |
| 1777670851 | 26.11° C | 81% | 1014.2 hPa | 0 mm | - | - | - |
| 1777670547 | 26.67° C | 82% | 1014.3 hPa | 0 mm | - | - | - |
| 1777670245 | 26.67° C | 81% | 1014.3 hPa | 0 mm | - | - | - |
| 1777669942 | 26.67° C | 80% | 1014.4 hPa | 0 mm | - | - | - |
| 1777669639 | 27.22° C | 79% | 1014.1 hPa | 0 mm | - | - | - |
| 1777669032 | 27.22° C | 79% | 1014.2 hPa | 0 mm | - | - | - |
* Rain latest hour (hover to see other rain measurements)
** Current wind speed in m/s (hover to see current wind gust speed)